Snowfall_Accumulation
0.0 0.0 3.1 2.8 0.6 0.5 1.7 0.5 2.1 5.8 5.7 7.5 9.9 9.8 11.5 9.6 7.4 6.7 5.8 4.5 5.9 6.9 5.1 5.6 6.6 4.0 3.3 3.1 1.7 3.1 3.9 2.8 2.2 2.5 4.2 2.6 2.4 2.6 3.5 3.2 3.1 2.9 2.7 2.3
0.0 0.0 1.1 2.2 0.4 0.2 0.6 1.0 1.5 3.5 3.0 3.1 2.4 0.5 0.6 2.9 5.8 5.6 5.4 4.5 1.7 1.3 1.9 1.0 0.6 0.7 0.5 0.4 0.4 0.3 0.8 0.9 1.3 0.4 1.3 2.1 1.5 1.8 1.6 1.6 2.3 3.6 4.2 3.2
4.8 0.0 3.4 9.5 7.2 3.8 2.2 1.6 1.8 2.8 3.3 3.5 1.2 0.2 0.1 0.0 0.5 1.5 2.1 2.2 1.5 0.5 0.6 0.4 0.1 0.0 0.0 0.0 0.0 0.0 0.1 0.1 0.1 0.0 0.0 0.0 0.3 0.5 0.0 0.4 0.8 4.2 6.4 7.5
7.4 3.0 30.1 6.2 1.5 2.8 6.5 4.0 5.0 4.1 4.5 3.1 1.5 0.6 0.0 0.0 0.1 0.1 0.1 0.2 0.1 0.5 0.3 0.1 0.0 0.0 0.0 0.0 0.0 0.0 0.0 0.0 0.0 0.1 0.0 0.0 0.0 0.0 0.0 0.0 0.0 0.0 0.3 0.1
22.0 15.0 3.7 0.7 0.0 0.8 1.9 2.3 1.0 1.9 1.4 0.6 0.4 0.1 0.0 0.0 0.0 0.1 0.1 0.1 0.1 0.2 0.1 0.1 0.1 0.0 0.0 0.0 0.0 0.0 0.1 0.1 0.0 0.1 0.0 0.0 0.0 0.0 0.0 0.5 0.0 0.4 0.2 0.1
20.9 28.9 13.9 0.7 0.0 0.0 0.3 4.7 1.1 0.1 0.5 0.2 0.0 0.4 0.3 0.2 0.0 0.0 0.0 0.0 0.0 0.0 0.0 2.1 2.9 2.2 3.9 0.1 0.0 0.3 0.3 0.2 0.0 0.1 0.0 0.0 0.0 0.0 0.2 0.2 0.6 1.7 3.2 0.2
7.2 22.0 4.9 0.0 0.0 0.0 5.9 5.7 0.3 0.2 0.6 0.1 0.3 0.4 0.4 0.1 0.0 0.0 0.1 0.1 0.0 0.1 0.3 1.3 2.6 4.0 6.6 7.9 7.7 3.6 2.7 2.0 0.0 0.0 0.2 0.0 0.0 0.0 0.2 0.7 1.5 2.9 2.7 0.6
8.6 18.1 15.8 0.0 0.0 1.5 2.3 0.4 0.2 0.2 0.1 0.2 0.2 0.2 0.1 0.0 0.0 0.3 0.5 0.9 0.6 0.5 0.5 1.2 1.9 4.8 6.8 8.5 8.5 8.4 6.7 7.4 2.9 0.0 1.3 0.2 0.0 0.1 0.4 0.8 1.7 2.5 2.8 2.6
5.7 5.7 1.0 0.1 0.8 0.5 0.3 0.2 0.2 0.0 0.1 0.1 0.0 0.1 0.0 0.0 0.0 1.3 3.1 3.5 1.8 1.6 1.2 0.9 1.6 2.8 5.0 6.6 6.5 8.0 6.8 8.9 5.0 6.2 2.1 2.1 0.1 0.4 0.7 0.6 1.1 0.8 1.8 1.5
2.6 1.9 0.4 0.1 0.1 0.1 0.1 0.1 0.0 0.1 0.1 0.0 0.0 0.0 0.0 0.0 0.0 0.9 3.7 3.4 2.7 2.5 2.1 1.7 1.7 1.4 1.6 1.6 2.1 3.7 5.4 6.4 8.8 6.5 8.3 8.6 4.0 5.0 2.4 2.3 1.2 1.4 1.1 1.1
5.3 2.5 1.3 0.6 0.6 0.8 0.2 0.0 0.0 0.0 0.1 0.0 0.0 0.1 0.1 0.0 0.0 0.1 1.9 2.4 3.3 2.7 2.6 3.0 2.4 1.3 0.8 0.6 0.8 1.6 2.3 2.5 3.8 6.3 8.2 9.4 13.3 17.1 16.5 17.0 6.5 7.6 8.7 5.0
15.0 6.7 3.6 3.3 2.2 1.4 1.1 0.1 0.1 0.0 0.0 0.0 0.0 0.1 0.1 0.0 0.1 0.1 0.2 0.3 0.7 1.0 0.9 0.8 0.7 0.6 0.4 0.4 0.4 0.1 1.0 1.4 2.5 3.1 4.9 6.9 10.0 13.1 14.1 18.4 18.1 22.1 18.0 24.0
5.5 5.4 3.8 3.7 2.7 1.9 1.8 1.3 0.1 0.0 0.0 0.1 0.2 0.1 0.1 0.0 0.0 0.1 0.1 0.2 0.3 0.6 0.6 0.6 0.4 0.3 0.2 0.2 0.2 0.3 0.5 0.4 2.2 3.1 4.1 6.2 6.7 9.1 13.1 24.2 26.9 30.5 30.2 29.7
1.7 1.9 3.6 3.4 3.8 1.7 0.9 0.9 0.5 0.4 0.2 0.5 0.4 0.2 0.2 0.1 0.0 0.0 0.2 0.3 0.3 0.2 0.4 0.3 0.1 0.9 0.8 0.4 0.3 0.1 0.1 3.5 8.7 13.3 15.9 17.1 17.8 21.5 22.7 24.5 24.6 26.6 25.4 23.9
1.1 0.5 1.3 1.3 1.1 1.0 0.7 0.6 0.6 0.5 0.7 1.2 0.9 0.7 0.2 0.2 0.2 0.5 0.6 0.3 0.2 0.2 0.4 0.4 0.5 1.2 1.9 2.8 3.1 4.6 6.7 8.9 10.7 11.2 10.8 10.0 9.5 11.5 12.5 13.0 14.7 15.4 14.5 12.8
0.4 0.1 0.2 0.8 1.0 0.8 1.0 0.8 0.5 1.5 1.1 0.8 0.4 0.5 0.2 0.2 0.5 0.5 0.6 0.5 0.5 1.7 1.6 1.5 2.5 6.0 6.2 6.1 6.7 7.4 8.4 9.3 8.1 7.9 8.8 9.1 7.7 6.8 6.9 6.2 6.6 6.6 7.4 8.6
0.5 0.6 0.1 0.3 0.4 0.5 0.5 0.2 0.3 0.5 0.2 0.2 0.2 0.0 0.2 0.3 0.2 0.6 1.4 1.6 1.7 3.2 4.9 6.1 11.6 12.2 11.0 10.1 9.3 10.3 9.8 9.2 7.5 6.3 6.0 5.6 4.8 4.6 4.2 4.8 4.8 3.7 3.6 3.0
0.7 0.2 0.0 0.1 0.6 0.5 0.4 0.8 0.4 0.8 0.9 0.9 0.6 0.8 0.8 1.5 1.8 3.6 3.5 2.8 3.6 7.1 10.4 14.1 13.8 12.3 11.4 10.9 7.4 7.8 6.7 5.9 5.0 5.2 4.2 3.9 3.2 2.7 2.7 3.2 2.7 3.1 4.0 3.6
0.5 2.1 2.2 1.2 0.8 0.3 0.3 0.9 0.7 1.0 2.7 2.6 4.2 6.8 9.4 11.3 12.6 14.8 15.1 14.0 14.5 13.9 19.8 15.6 12.2 9.0 8.1 7.4 4.8 3.6 4.0 4.1 3.4 3.6 3.3 2.7 3.0 2.1 3.5 3.7 3.7 3.3 3.4 4.8
2.2 1.8 2.1 3.9 4.3 4.2 5.1 7.8 7.5 9.2 11.0 10.4 11.2 13.6 16.5 20.7 20.9 20.1 17.1 16.7 17.6 16.8 13.6 10.1 6.6 4.8 3.7 2.6 1.7 1.8 1.9 2.3 2.5 1.9 2.5 1.9 2.5 2.6 2.9 4.7 5.6 4.7 4.0 3.9
4.6 5.8 6.4 8.4 11.3 12.9 14.1 15.3 13.7 15.4 18.4 16.4 14.7 17.1 17.4 19.4 17.4 14.2 13.2 10.5 15.6 10.5 6.1 4.2 2.6 1.9 1.1 1.1 0.7 1.0 1.4 1.7 2.2 2.0 2.5 3.8 4.3 4.6 3.9 2.3 3.4 3.7 3.5 3.5
7.6 7.9 9.2 8.7 7.5 11.0 12.3 12.0 10.0 11.4 12.3 12.6 12.6 12.9 11.8 13.9 12.4 10.6 9.1 7.8 7.9 4.3 2.5 1.4 1.1 0.6 0.4 0.6 0.8 1.2 1.6 2.2 2.6 2.8 3.0 4.1 4.4 4.3 3.6 2.5 2.4 2.7 3.2 3.0
8.7 7.8 7.9 7.9 6.8 8.6 9.0 8.5 9.3 7.9 8.9 9.6 9.3 9.8 8.4 8.7 7.6 6.3 6.1 3.7 1.3 1.0 0.7 1.1 1.4 1.3 1.1 1.0 1.3 2.1 3.0 3.6 4.3 4.6 4.8 4.9 4.8 4.5 3.8 3.0 2.8 2.8 3.5 3.7
8.0 7.7 8.4 7.7 6.2 4.7 7.0 10.1 7.7 7.5 7.0 7.3 7.4 7.5 5.9 5.7 4.9 1.3 1.3 1.3 1.6 1.5 1.8 2.6 2.6 1.7 1.8 2.6 3.4 3.2 3.8 4.3 4.5 5.1 4.6 4.2 5.6 5.2 5.5 5.3 5.1 5.2 5.2 4.8
8.9 8.6 8.7 8.5 6.9 8.7 8.0 8.2 6.3 6.7 5.8 5.6 5.0 3.1 1.9 1.7 1.7 3.2 2.0 2.4 2.2 2.8 3.6 4.0 3.7 3.6 4.1 4.5 5.0 4.8 5.3 5.7 5.8 5.7 6.3 6.8 7.4 7.5 7.0 7.1 6.4 5.9 6.1 5.6
9.6 9.1 9.5 8.8 7.7 7.3 6.8 6.0 6.0 5.7 3.9 3.6 3.9 3.7 3.8 3.2 2.8 3.0 3.3 3.2 3.3 3.5 4.6 5.2 5.0 4.8 5.3 5.8 6.1 6.1 6.3 6.2 6.2 6.8 7.0 7.3 7.7 7.6 7.6 7.2 7.3 6.8 7.0 6.8
9.2 8.4 7.1 6.6 6.6 5.7 4.5 3.0 3.5 3.8 3.4 3.6 5.7 4.4 4.6 3.9 3.9 3.8 3.7 5.3 5.5 6.0 6.4 6.1 6.4 5.5 6.1 6.5 6.2 5.9 6.4 6.3 5.7 7.0 7.4 8.0 7.9 8.4 8.9 8.8 8.1 7.3 6.9 7.4